Wind_Speed
27 26 25 25 24 23 24 23 22 22 22 21 21 22 22 21 21 20 19 19 19 20 21 21 21 21 21 21 20 20 20 20 20 21 21 21 21 21 21 21 22 22 22 23
29 29 28 27 26 25 25 25 24 24 24 23 22 22 23 22 21 21 21 21 21 21 21 21 21 21 22 21 21 21 21 21 21 21 21 21 22 22 22 22 22 22 23 23
30 30 30 29 27 26 26 26 25 25 24 24 24 23 23 24 23 22 22 21 21 22 22 21 21 22 21 21 22 22 22 22 22 22 22 22 22 22 22 23 23 24 25 25
31 31 32 30 28 27 27 27 26 26 25 25 25 24 24 25 25 24 23 22 22 23 22 22 22 22 22 22 22 22 22 22 23 23 23 23 23 24 24 23 23 24 25 26
32 32 31 31 29 27 27 27 26 27 26 26 25 26 25 25 25 24 24 24 24 24 24 24 24 23 24 24 23 23 22 23 23 23 24 24 24 24 24 25 25 25 25 24
32 31 30 30 28 27 28 30 27 27 28 27 26 26 26 26 26 25 25 25 26 26 26 26 26 25 25 25 24 23 24 24 24 25 25 26 26 25 25 26 26 26 26 25
31 31 31 30 28 28 29 29 28 28 29 28 28 28 28 27 27 27 26 27 27 27 28 28 27 27 26 26 26 25 26 26 26 26 27 27 27 26 27 27 27 26 26 26
31 32 31 30 30 29 30 30 29 29 29 29 29 29 29 29 29 28 28 28 29 29 29 29 29 29 28 28 28 28 28 28 28 28 28 28 28 28 28 28 27 26 26 26
32 32 31 30 30 30 30 29 29 29 29 29 29 29 29 29 29 29 29 30 30 31 30 29 29 30 29 29 28 28 29 29 29 29 28 28 29 28 27 27 27 27 26 26
33 32 32 31 31 31 30 30 29 29 29 29 29 29 29 29 29 30 30 30 31 31 30 30 30 30 29 29 29 28 28 28 29 29 29 29 28 28 28 28 28 27 27 26
33 33 33 32 31 31 31 30 30 30 30 30 29 29 29 29 30 30 30 30 31 31 31 31 30 30 30 30 29 29 29 29 29 29 29 29 29 29 28 28 28 27 27 27
32 32 32 32 31 31 31 30 30 30 30 30 30 29 29 30 30 30 30 30 30 31 31 31 30 30 29 29 29 29 29 29 29 29 29 29 29 29 28 28 28 27 27 26
32 32 32 31 31 31 31 31 31 30 30 30 30 30 30 30 30 30 30 30 30 30 30 30 30 29 28 28 28 28 28 29 29 29 28 28 28 28 28 27 27 27 27 26
31 31 31 31 31 31 31 31 30 30 30 30 30 30 30 30 30 30 30 30 29 30 30 29 29 29 28 28 28 28 28 28 28 28 28 28 28 27 27 27 26 26 27 27
29 30 30 31 31 30 30 30 31 30 30 30 30 30 30 30 29 29 30 29 28 28 29 29 28 29 29 28 28 28 28 28 28 27 27 27 26 26 26 26 26 26 26 27
28 29 30 30 29 29 30 30 31 30 30 30 30 30 29 29 29 29 29 28 27 27 27 28 27 27 28 28 28 28 27 27 27 27 26 26 25 26 26 26 26 26 26 26
27 28 28 28 28 29 29 30 30 29 29 29 29 28 28 27 27 26 26 25 25 26 26 27 26 26 26 27 27 26 26 26 26 26 25 25 25 24 24 24 24 25 25 24
26 27 27 27 28 29 28 28 28 28 28 28 28 27 27 25 25 24 24 25 25 25 25 25 25 25 25 24 25 25 25 25 24 24 24 23 23 23 23 22 23 23 22 23
26 27 27 27 27 27 26 26 27 27 26 26 26 25 24 24 24 24 23 24 24 24 24 24 24 23 24 24 24 24 23 23 22 22 22 22 23 22 22 21 21 21 22 23
24 25 25 26 25 25 25 25 25 25 24 23 23 23 22 22 22 22 22 22 22 23 23 23 23 23 22 22 22 21 20 20 20 20 20 21 21 21 20 20 20 21 21 22
22 23 23 23 23 23 23 23 23 23 22 22 21 21 20 21 21 20 20 20 21 21 21 21 21 21 21 20 19 19 19 18 18 18 19 19 19 19 20 20 20 20 21 21
20 20 21 21 21 21 21 21 21 21 21 20 20 19 20 20 20 19 19 20 19 19 19 19 19 19 19 18 18 18 18 18 18 18 18 18 19 19 20 20 20 19 19 19
18 18 19 19 19 20 20 20 20 20 19 18 18 18 19 19 19 20 19 19 19 18 18 18 18 18 18 17 17 17 18 18 18 18 18 18 19 19 19 19 19 19 18 18
16 16 17 17 17 18 17 18 17 17 17 17 17 17 18 18 19 20 20 19 19 19 18 18 18 17 17 17 17 18 18 17 17 17 18 18 18 18 18 19 19 18 18 18
14 14 14 15 15 15 16 16 16 17 17 17 17 17 17 18 18 18 19 19 19 18 18 17 17 17 17 17 18 18 18 18 17 17 17 18 18 18 19 19 18 18 18 19
11 12 12 13 14 14 15 15 15 16 17 17 17 17 17 17 18 18 18 18 18 18 19 18 18 18 17 17 17 17 17 17 17 17 18 18 18 18 18 19 19 20 20 20
11 12 12 13 14 15 15 15 15 16 16 17 17 17 17 17 17 18 18 18 18 18 17 17 17 17 18 18 18 18 18 18 18 18 18 18 19 19 20 20 20 21 21 21
Wind_Direction
248 251 255 259 261 262 262 263 266 270 274 278 281 279 279 280 281 281 281 283 284 285 285 285 287 288 288 287 286 285 287 284 283 284 283 284 285 284 284 287 289 289 287 286
252 253 256 259 260 261 263 265 267 270 274 278 281 281 280 281 283 282 280 281 283 284 285 285 286 289 289 287 287 286 287 285 281 283 284 283 283 284 283 285 287 287 288 287
254 256 258 259 259 261 264 265 267 269 273 277 279 281 281 280 281 282 280 280 281 282 285 285 285 287 288 287 286 286 286 285 279 281 284 284 284 285 287 288 288 289 288 288
254 256 258 260 260 262 264 265 266 267 270 273 276 278 280 280 280 280 278 279 281 282 283 285 284 285 285 286 286 284 283 284 281 280 283 284 285 286 288 290 290 290 290 288
253 257 262 262 261 262 264 265 265 268 270 272 274 277 279 279 278 279 278 278 279 281 282 285 284 284 286 287 286 283 281 281 281 280 281 284 286 287 289 291 292 290 288 288
254 256 258 263 263 263 265 266 266 267 268 270 272 275 277 277 277 277 278 279 279 280 282 283 284 284 285 286 286 285 283 282 281 282 283 283 285 286 288 290 291 289 288 288
254 256 258 260 263 264 264 266 267 267 268 268 269 272 274 275 276 276 276 277 278 280 282 283 284 284 284 284 284 285 284 283 283 283 284 283 284 284 285 288 290 289 288 289
254 255 256 260 262 263 264 266 267 268 268 269 270 271 273 275 277 275 275 276 277 279 280 282 283 284 284 285 284 282 282 282 283 283 282 283 284 285 285 286 288 289 289 290
254 256 259 261 262 263 265 266 266 267 269 270 270 271 273 275 276 275 275 276 277 278 279 280 282 284 284 285 284 283 282 281 281 281 281 282 284 285 286 286 286 286 286 287
254 255 256 259 261 263 265 266 267 268 270 271 272 272 272 273 274 274 274 275 277 278 279 279 280 282 283 283 283 282 282 281 281 281 280 282 283 284 284 284 285 284 284 284
254 255 256 259 260 262 264 265 266 268 271 272 272 272 271 272 273 272 274 276 277 277 277 278 280 281 282 281 282 282 281 280 280 280 280 280 281 282 283 283 284 284 284 283
253 254 256 257 259 261 263 265 266 269 271 272 271 270 271 272 272 272 274 276 276 277 277 277 278 280 280 281 281 282 282 281 280 279 279 279 280 280 282 281 282 283 283 283
252 252 254 257 258 261 262 265 267 268 269 269 269 270 272 273 274 275 276 276 277 277 277 276 276 277 278 280 282 282 283 283 282 279 278 278 279 279 280 281 281 282 281 282
252 253 255 257 259 261 263 264 266 267 268 269 270 271 272 273 273 274 276 276 277 277 276 275 275 276 277 279 281 282 283 282 282 280 278 277 278 279 279 279 281 281 281 280
253 255 257 258 260 261 263 265 266 267 268 269 271 272 272 271 272 273 276 276 277 276 274 274 275 275 276 278 280 280 281 281 280 280 279 277 276 277 277 277 279 280 279 279
253 255 257 258 260 261 263 265 267 267 268 269 272 272 271 271 272 274 275 275 275 275 275 275 275 276 277 277 278 280 280 280 279 279 279 280 279 278 277 276 277 278 279 279
252 254 257 258 259 261 264 265 266 266 268 269 271 271 270 270 271 273 273 273 276 276 275 275 275 275 277 276 276 277 278 279 279 279 280 280 281 283 281 278 277 278 278 279
253 255 257 259 260 262 265 266 267 268 270 270 270 270 269 268 269 271 271 272 274 276 277 277 277 275 277 277 276 277 278 279 279 279 280 281 282 282 280 278 279 279 280 281
255 256 258 260 262 264 266 268 268 269 270 269 268 268 267 267 268 270 271 272 274 277 278 280 280 279 279 279 279 280 279 278 278 278 277 279 279 280 282 282 282 281 281 282
258 259 260 261 262 264 267 267 268 267 266 266 266 266 266 266 268 269 270 273 275 277 279 280 280 280 280 281 281 280 280 279 277 276 276 278 278 280 282 284 287 287 286 285
259 261 261 261 262 263 265 266 266 264 262 263 263 263 265 266 268 271 272 274 277 279 279 279 280 281 281 281 280 279 279 279 278 277 278 280 282 284 286 287 286 288 288 288
258 259 260 261 261 262 263 262 260 260 260 259 260 261 263 266 268 269 271 274 277 278 279 280 282 282 281 279 278 279 279 280 281 281 281 280 281 283 285 285 285 287 288 288
256 257 260 261 260 260 261 259 258 258 255 255 257 260 262 263 265 266 269 272 276 278 279 279 281 281 281 281 280 281 282 281 281 281 282 281 282 284 284 285 285 287 287 285
255 257 259 258 256 256 255 255 255 254 252 254 257 259 260 262 262 264 266 270 272 275 278 280 281 282 282 282 282 282 282 282 282 281 282 282 283 283 283 284 284 283 283 284
257 258 257 253 252 253 254 253 252 253 253 254 255 257 259 262 263 263 265 268 272 275 277 280 282 283 284 284 282 281 281 282 282 282 281 281 283 285 285 284 283 282 282 283
255 258 258 255 254 256 256 255 252 251 251 252 253 256 259 263 264 265 267 270 273 276 276 278 281 283 284 284 283 283 283 284 284 284 285 285 284 284 283 283 283 282 282 282
257 259 259 257 257 257 257 256 254 252 252 252 254 258 262 265 267 268 270 271 273 274 275 277 281 284 285 284 284 285 287 288 287 285 286 287 287 286 285 284 283 284 285 284
Height
5859 5860 5861 5861 5862 5862 5863 5864 5865 5865 5864 5863 5862 5861 5860 5859 5858 5857 5856 5855 5854 5852 5850 5849 5847 5845 5844 5842 5841 5839 5838 5837 5835 5834 5833 5832 5830 5829 5827 5826 5824 5822 5820 5819
5851 5852 5853 5854 5855 5855 5856 5857 5857 5857 5857 5857 5855 5854 5854 5853 5852 5851 5850 5849 5848 5846 5844 5843 5841 5840 5838 5836 5835 5833 5832 5831 5829 5828 5827 5825 5824 5823 5821 5820 5818 5816 5815 5813
5843 5845 5845 5846 5848 5849 5849 5849 5850 5850 5851 5849 5849 5848 5847 5846 5845 5845 5844 5843 5841 5840 5838 5837 5835 5834 5832 5830 5829 5827 5826 5824 5823 5822 5821 5819 5818 5816 5815 5813 5811 5810 5808 5807
5835 5836 5836 5841 5840 5841 5841 5842 5842 5842 5842 5842 5841 5841 5840 5839 5838 5838 5837 5836 5835 5833 5832 5830 5829 5827 5826 5824 5822 5821 5820 5818 5817 5815 5814 5813 5811 5810 5808 5806 5804 5803 5801 5799
5826 5827 5828 5831 5831 5832 5833 5833 5834 5834 5834 5834 5834 5833 5833 5832 5831 5830 5830 5829 5827 5826 5825 5824 5822 5821 5819 5818 5816 5814 5813 5812 5811 5809 5808 5806 5805 5803 5801 5799 5798 5796 5793 5792
5817 5819 5821 5823 5823 5824 5826 5825 5826 5826 5826 5826 5826 5826 5826 5825 5823 5823 5822 5821 5820 5819 5818 5816 5815 5813 5812 5811 5809 5808 5806 5805 5803 5802 5800 5799 5798 5796 5794 5792 5790 5788 5787 5785
5808 5810 5812 5814 5814 5816 5818 5818 5817 5817 5818 5818 5818 5818 5817 5816 5815 5815 5814 5813 5812 5811 5810 5808 5807 5806 5804 5803 5802 5800 5799 5797 5796 5794 5792 5791 5790 5788 5786 5785 5783 5781 5779 5777
5800 5802 5805 5805 5806 5807 5808 5808 5809 5809 5809 5809 5809 5809 5808 5808 5807 5806 5805 5805 5803 5802 5801 5800 5799 5797 5796 5795 5793 5792 5790 5789 5787 5785 5784 5782 5781 5780 5778 5776 5775 5773 5771 5770
5792 5795 5795 5796 5797 5797 5798 5799 5799 5800 5800 5800 5800 5800 5800 5799 5798 5797 5797 5796 5795 5794 5793 5791 5790 5789 5787 5786 5784 5783 5781 5780 5778 5777 5775 5774 5773 5771 5770 5768 5767 5765 5763 5762
5782 5784 5785 5786 5787 5788 5789 5790 5790 5791 5791 5791 5791 5791 5791 5790 5789 5788 5788 5787 5785 5784 5783 5783 5781 5780 5778 5777 5775 5774 5772 5771 5769 5768 5767 5765 5764 5763 5761 5760 5758 5757 5755 5754
5772 5775 5776 5777 5778 5779 5780 5780 5781 5781 5781 5781 5781 5781 5781 5780 5780 5779 5778 5777 5776 5775 5774 5773 5772 5771 5769 5768 5766 5765 5763 5762 5760 5759 5758 5756 5755 5754 5752 5751 5750 5748 5747 5746
5763 5765 5766 5768 5769 5769 5770 5771 5771 5772 5772 5771 5771 5771 5771 5770 5770 5769 5769 5768 5767 5766 5765 5764 5763 5761 5760 5759 5757 5756 5754 5753 5751 5750 5748 5747 5746 5745 5743 5742 5741 5740 5739 5738
5753 5754 5756 5758 5759 5760 5760 5761 5762 5762 5762 5762 5762 5762 5761 5761 5760 5760 5759 5758 5757 5756 5755 5754 5753 5752 5751 5750 5748 5747 5745 5744 5742 5740 5739 5738 5737 5736 5735 5734 5733 5732 5731 5729
5744 5745 5747 5749 5750 5751 5751 5751 5752 5752 5752 5752 5752 5752 5752 5751 5751 5750 5749 5749 5748 5746 5745 5744 5744 5743 5742 5741 5739 5738 5736 5735 5733 5732 5731 5729 5728 5727 5726 5726 5725 5724 5723 5721
5735 5736 5738 5739 5740 5741 5741 5742 5742 5742 5742 5742 5742 5742 5742 5742 5741 5741 5740 5739 5738 5737 5736 5735 5735 5734 5733 5732 5730 5729 5728 5726 5725 5723 5722 5721 5720 5719 5718 5717 5716 5715 5714 5713
5726 5727 5728 5730 5731 5732 5732 5732 5733 5733 5733 5733 5733 5733 5732 5732 5732 5732 5731 5730 5730 5728 5728 5727 5726 5726 5725 5723 5722 5721 5719 5718 5716 5715 5714 5713 5711 5710 5709 5709 5708 5706 5705 5704
5716 5718 5719 5721 5722 5722 5723 5723 5723 5723 5723 5723 5723 5723 5723 5723 5723 5723 5722 5722 5721 5720 5719 5718 5717 5716 5715 5714 5713 5712 5711 5710 5709 5708 5706 5705 5704 5702 5701 5700 5699 5698 5698 5696
5708 5709 5710 5712 5712 5713 5713 5713 5714 5714 5714 5714 5714 5714 5714 5714 5715 5715 5714 5714 5713 5712 5711 5710 5709 5708 5707 5706 5705 5704 5703 5702 5701 5700 5699 5697 5696 5695 5694 5693 5692 5691 5690 5689
5699 5700 5701 5702 5703 5703 5704 5704 5704 5704 5704 5705 5705 5705 5705 5706 5707 5707 5706 5706 5705 5704 5703 5702 5701 5700 5699 5698 5697 5696 5696 5695 5694 5693 5692 5691 5689 5688 5687 5686 5685 5684 5683 5681
5691 5692 5692 5693 5694 5694 5695 5695 5695 5696 5696 5696 5697 5697 5698 5699 5699 5699 5699 5698 5697 5697 5696 5695 5694 5693 5692 5691 5690 5689 5689 5688 5687 5686 5685 5684 5683 5682 5681 5680 5678 5677 5676 5675
5683 5684 5684 5685 5685 5686 5687 5687 5687 5688 5688 5689 5690 5690 5691 5691 5692 5692 5692 5691 5691 5690 5689 5688 5687 5686 5685 5684 5683 5683 5682 5681 5680 5679 5678 5678 5677 5676 5675 5674 5673 5671 5670 5668
5676 5676 5677 5677 5678 5678 5679 5679 5680 5681 5681 5682 5683 5684 5684 5685 5685 5685 5685 5685 5684 5683 5683 5682 5681 5680 5679 5678 5678 5677 5676 5675 5674 5673 5672 5672 5671 5670 5669 5668 5666 5665 5664 5662
5669 5669 5670 5670 5671 5671 5672 5673 5674 5674 5675 5677 5677 5678 5678 5679 5679 5679 5679 5679 5678 5677 5677 5676 5675 5674 5673 5673 5672 5671 5670 5669 5669 5668 5667 5666 5665 5664 5663 5662 5661 5659 5658 5657
5663 5663 5664 5664 5665 5665 5666 5667 5667 5669 5670 5671 5672 5672 5672 5673 5673 5673 5673 5672 5672 5672 5671 5671 5670 5669 5668 5667 5667 5666 5665 5664 5663 5662 5661 5660 5659 5658 5657 5656 5655 5654 5652 5651
5658 5658 5658 5659 5659 5660 5661 5662 5663 5663 5664 5665 5666 5666 5667 5667 5667 5667 5667 5667 5666 5666 5666 5665 5664 5664 5663 5662 5661 5660 5659 5658 5657 5656 5655 5654 5653 5652 5651 5650 5649 5648 5647 5646
5653 5654 5654 5655 5656 5656 5656 5656 5657 5658 5659 5660 5660 5661 5661 5661 5661 5661 5661 5661 5661 5661 5660 5659 5658 5658 5657 5656 5656 5655 5653 5652 5651 5650 5649 5648 5647 5646 5645 5644 5643 5642 5641 5639
5650 5650 5650 5651 5651 5651 5652 5652 5652 5653 5654 5655 5655 5656 5656 5656 5656 5656 5656 5656 5655 5655 5654 5654 5653 5652 5651 5650 5649 5648 5647 5646 5645 5644 5643 5642 5641 5640 5639 5637 5636 5635 5634 5632